977  
ASUS43 KFSD 191910  
RWRFSD  
 
WEATHER ROUNDUP FOR SE SOUTH DAKOTA/SW MINNESOTA/NW IOWA  
NATIONAL WEATHER SERVICE SIOUX FALLS SD  
200 PM CDT TUE MAR 19 2019  
 
NOTE: "FAIR" INDICATES FEW OR NO CLOUDS BELOW 12,000 FEET WITH NO  
SIGNIFICANT WEATHER AND OR S TO VISIBILITY
.  
 
 
SDZ038>040-050-052>070-192000-  
SOUTHEAST SOUTH DAKOTA  
 
CITY SKY/WX TMP DP RH WIND PRES REMARKS
 
BROOKINGS SUNNY 41 32 70 NW7 30.21S  
CHAMBERLAIN CLOUDY 36 36 99 NW14G20 30.27R  
HURON SUNNY 34 29 82 NW12 30.24S WCI 25  
MADISON FAIR 41 37 87 NW6 30.21S  
MITCHELL FAIR 40 32 73 NW8 30.25S  
SIOUX FALLS MOSUNNY 49 35 58 NW7 30.21F  
WINNER CLOUDY 36 30 79 NW12 30.27R  
YANKTON SUNNY 50 38 63 NW8 30.23S  

 
 
MNZ071-072-080-081-089-090-097-098-192000-  
SOUTHWEST MINNESOTA  
 
CITY SKY/WX TMP DP RH WIND PRES REMARKS
 
FAIRMONT SUNNY 44 32 62 SW13 30.24F  
JACKSON SUNNY 41 32 70 SW8 30.23F  
LUVERNE SUNNY 46 34 61 SW7 30.22F  
MARSHALL SUNNY 38 32 79 W9 30.21  
MONTEVIDEO SUNNY 39 28 65 NW7 30.22R  
REDWOOD FALLS SUNNY 40 30 67 W6 30.21S  
WINDOM SUNNY 41 32 70 SW12 30.21F  
WORTHINGTON SUNNY 42 34 73 SW10 30.22F  

 
 
IAZ001>003-012>014-020>022-031-032-NEZ013-014-SDZ071-192000-  
NORTHWEST IOWA  
 
CITY SKY/WX TMP DP RH WIND PRES REMARKS
 
CHEROKEE MOSUNNY 49 34 56 W8 30.24F  
DENISON MOSUNNY 48 36 61 SW6 30.27S  
ESTHERVILLE SUNNY 42 33 70 W12 30.23S  
LE MARS CLOUDY 48 37 66 VRB7 30.24S  
SHELDON SUNNY 46 45 93 W9 30.21S  
SIOUX CITY CLOUDY 47 37 68 SW6 30.25S  
SPENCER SUNNY 49 36 61 W13 30.24S  
STORM LAKE MOSUNNY 46 36 66 SW7 30.21F  

 
 
ABBREVIATIONS USED IN REMARKS  
TC - TEMPERATURE IN CELSIUS  
WCI - WIND CHILL INDEX  
HX - HEAT INDEX  
VSB - VISIBILITY  
 
 
 
CLICK HERE TO GO TO PREVIOUS BULLETINS.

The Nexlab SD Page
The Nexlab IA Page
The Nexlab MN Page
The Nexlab NE Page Main Text Page